Voltar ao catálogo

STARLINK-36549

AtivoComunicaçõesVLEO
NORAD 67510·PAYLOAD·🇺🇸 United States

Lançado Jan 18, 2026 de Cape Canaveral Space Force Station

Loading…

Próximas Passagens (próximas 24 horas)

TLE

AtualizadoSource: CelesTrak SupGP

Época: Sep 15, 2026, 02:45 UTC

1 67510C 26012T   26258.11506944  .00040323  00000+0  14602-2 0  2587
2 67510  43.0019 324.1779 0001391 262.0636 216.3409 15.27565250    14

Acompanhe STARLINK-36549 em tempo real com AllMySat

Download on the App Store